This is the latest recevied weather packets stored in our database for station/object KI5MKI. If no packets are shown the sender has not sent any weather packets the latest 1 day(s).
| Time | Temp. | Humidity | Pressure | Rain* | Wind** | Luminosity | Snow |
|---|---|---|---|---|---|---|---|
| 1836274719 | 23.33° C | 78% | 1017.2 hPa | 0 mm | 0 m/s | 0 W/m² | - |
| 1836274571 | 23.89° C | 76% | 1016.9 hPa | 0 mm | 0.45 m/s, 85° | 0 W/m² | - |
| 1836274417 | 23.33° C | 78% | 1017.1 hPa | 0 mm | 0.89 m/s, 113° | 0 W/m² | - |
| 1836274270 | 23.89° C | 77% | 1017.1 hPa | 0 mm | 0.89 m/s, 132° | 0 W/m² | - |
| 1836274115 | 23.89° C | 77% | 1017 hPa | 0 mm | 0 m/s | 0 W/m² | - |
| 1778060472 | 13.33° C | 76% | 1010.6 hPa | 0 mm | 1.79 m/s, 67° | 0 W/m² | - |
| 1778060170 | 13.89° C | 76% | 1010.7 hPa | 0 mm | 1.34 m/s, 9° | 0 W/m² | - |
| 1778059880 | 13.89° C | 76% | 1010.6 hPa | 0 mm | 1.34 m/s, 83° | 0 W/m² | - |
| 1778059565 | 13.89° C | 77% | 1010.5 hPa | 0 mm | 0.89 m/s, 267° | 0 W/m² | - |
| 1778059262 | 13.89° C | 77% | 1010.5 hPa | 0 mm | 0 m/s | 0 W/m² | - |
| 1778058960 | 13.89° C | 77% | 1010.3 hPa | 0 mm | 0.89 m/s, 10° | 0 W/m² | - |
| 1778058657 | 13.89° C | 77% | 1010.2 hPa | 0 mm | 0.89 m/s, 77° | 0 W/m² | - |
| 1778058355 | 13.89° C | 77% | 1010.1 hPa | 0 mm | 0.89 m/s, 336° | 0 W/m² | - |
| 1778058051 | 13.89° C | 77% | 1010.2 hPa | 0 mm | 0.45 m/s, 76° | 0 W/m² | - |
| 1778057748 | 13.89° C | 77% | 1010 hPa | 0 mm | 1.34 m/s, 70° | 0 W/m² | - |
| 1778057444 | 13.89° C | 77% | 1010.2 hPa | 0 mm | 1.79 m/s, 76° | 0 W/m² | - |
| 1778057141 | 13.89° C | 77% | 1010.1 hPa | 0 mm | 0.89 m/s, 47° | 0 W/m² | - |
| 1778056837 | 13.89° C | 77% | 1010.2 hPa | 0 mm | 0.89 m/s, 16° | 0 W/m² | - |
| 1778056535 | 13.89° C | 77% | 1010.2 hPa | 0 mm | 0.45 m/s, 13° | 0 W/m² | - |
| 1778056232 | 13.89° C | 77% | 1010.1 hPa | 0 mm | 0.89 m/s, 348° | 0 W/m² | - |
| 1778055929 | 13.89° C | 77% | 1010 hPa | 0 mm | 0.45 m/s, 58° | 0 W/m² | - |
| 1778055624 | 13.89° C | 77% | 1010 hPa | 0 mm | 0.89 m/s, 282° | 0 W/m² | - |
| 1778055323 | 13.89° C | 77% | 1010 hPa | 0 mm | 0.45 m/s, 320° | 0 W/m² | - |
| 1778055020 | 13.89° C | 77% | 1010.1 hPa | 0 mm | 1.34 m/s, 291° | 0 W/m² | - |
| 1778054717 | 13.89° C | 77% | 1010.3 hPa | 0 mm | 0.89 m/s, 61° | 0 W/m² | - |
* Rain latest hour (hover to see other rain measurements)
** Current wind speed in m/s (hover to see current wind gust speed)